TimeCST,TemperatureF,Dew PointF,Humidity,Sea Level PressureIn,VisibilityMPH,Wind Direction,Wind SpeedMPH,Gust SpeedMPH,PrecipitationIn,Events,Conditions,WindDirDegrees,DateUTC
12:53 AM,48.0,39.9,74,29.84,10.0,West,13.8,-,N/A,,Clear,270,2012-12-24 06:53:00
1:53 AM,43.0,35.1,74,29.87,8.0,WSW,6.9,-,N/A,,Clear,250,2012-12-24 07:53:00
2:53 AM,39.9,32.0,73,29.87,7.0,WSW,9.2,-,N/A,,Clear,250,2012-12-24 08:53:00
3:53 AM,37.0,30.9,79,29.89,5.0,West,9.2,-,N/A,,Haze,260,2012-12-24 09:53:00
4:53 AM,35.1,28.9,78,29.91,5.0,West,10.4,-,N/A,,Haze,260,2012-12-24 10:53:00
5:53 AM,34.0,28.9,82,29.96,5.0,WSW,12.7,-,N/A,,Haze,250,2012-12-24 11:53:00
6:53 AM,32.0,27.0,82,30.00,5.0,West,11.5,-,N/A,,Haze,260,2012-12-24 12:53:00
7:53 AM,32.0,27.0,82,30.01,3.0,SW,6.9,-,N/A,,Haze,230,2012-12-24 13:53:00
8:53 AM,34.0,28.0,79,30.03,4.0,West,11.5,-,N/A,,Haze,280,2012-12-24 14:53:00
9:53 AM,34.0,27.0,75,30.03,5.0,WSW,5.8,-,N/A,,Haze,250,2012-12-24 15:53:00
10:53 AM,39.0,28.0,65,30.05,6.0,West,10.4,-,N/A,,Haze,260,2012-12-24 16:53:00
11:53 AM,42.1,28.0,58,30.01,7.0,WSW,4.6,-,N/A,,Clear,240,2012-12-24 17:53:00
12:53 PM,44.1,28.0,53,29.95,7.0,Calm,Calm,-,N/A,,Clear,0,2012-12-24 18:53:00
1:53 PM,46.9,28.0,48,29.94,9.0,Calm,Calm,-,N/A,,Clear,0,2012-12-24 19:53:00
2:53 PM,48.0,28.0,46,29.95,9.0,West,5.8,-,N/A,,Clear,260,2012-12-24 20:53:00
3:53 PM,48.0,28.0,46,29.94,9.0,West,5.8,-,N/A,,Clear,270,2012-12-24 21:53:00
4:53 PM,45.0,30.0,56,29.96,7.0,West,5.8,-,N/A,,Clear,270,2012-12-24 22:53:00
5:53 PM,43.0,30.0,60,29.95,9.0,South,3.5,-,N/A,,Clear,190,2012-12-24 23:53:00
6:53 PM,41.0,30.0,65,29.95,8.0,South,3.5,-,N/A,,Clear,170,2012-12-25 00:53:00
7:53 PM,39.9,30.0,68,29.95,7.0,Calm,Calm,-,N/A,,Clear,0,2012-12-25 01:53:00
8:53 PM,39.9,30.0,68,29.93,7.0,Calm,Calm,-,N/A,,Clear,0,2012-12-25 02:53:00
9:53 PM,39.0,30.9,73,29.92,7.0,NE,5.8,-,N/A,,Clear,50,2012-12-25 03:53:00
10:53 PM,39.9,30.9,70,29.93,7.0,Calm,Calm,-,N/A,,Clear,0,2012-12-25 04:53:00
11:53 PM,39.0,30.9,73,29.93,7.0,ENE,9.2,-,N/A,,Clear,60,2012-12-25 05:53:00